Regional Weather Roundup
Issued by NWS

Home | Current Version | Previous Version | Graphics & Text | Print | Product List | Glossary On
Versions: 1 2 3 4 5 6 7 8 9 10 11 12 13 14 15 16 17 18 19 20 21 22 23 24 25 26 27 28 29 30 31 32 33 34 35 36 37 38 39 40 41 42 43 44 45 46 47 48 49 50
000
ASUS43 KLMK 011610
RWRKY
KENTUCKY REGIONAL WEATHER ROUNDUP
NATIONAL WEATHER SERVICE LOUISVILLE KY
1100 AM EST SUN FEB 01 2015

NOTE "FAIR" INDICATES FEW OR NO CLOUDS BELOW 12,000 FEET
WITH NO SIGNIFICANT WEATHER AND/OR OBSTRUCTIONS TO VISIBILITY.

KYZ001>023-026-027-061>063-070>075-011700-
WESTERN AND SOUTH CENTRAL KENTUCKY

CITY           SKY/WX    TMP DP  RH WIND       PRES   REMARKS
PADUCAH        LGT RAIN  46  44  93 VRB6      29.79F FOG
HENDERSON      CLOUDY    43  37  81 S13G23    29.77F
OWENSBORO      LGT RAIN  42  39  89 S17G28    29.80F FOG
HOPKINSVILLE   MIX PCPN  44  41  88 S13G22    29.82F
BOWLING GREEN  LGT RAIN  46  36  68 S21G31    29.90F
GLASGOW        LGT RAIN  44  36  73 S10G16    29.93F
$$

KYZ024-025-028>034-038-045-046-053-011700-
NORTH CENTRAL KENTUCKY

CITY           SKY/WX    TMP DP  RH WIND       PRES   REMARKS
LOUISVILLE/SDF LGT RAIN  44  33  65 S13       29.88F
LOUISVILLE/LOU LGT RAIN  43  30  60 S7        29.89F
FORT KNOX      MIX PCPN  41  34  76 S15       29.86F
$$

KYZ035>037-039>044-047>052-055>060-089>105-011700-
NORTHEAST KENTUCKY

CITY           SKY/WX    TMP DP  RH WIND       PRES   REMARKS
LEXINGTON      LGT RAIN  43  24  47 S22G29    29.97F
COVINGTON      CLOUDY    41  24  51 SE16      29.90F
FRANKFORT      CLOUDY    45  20  36 S17G26    29.92F
$$

KYZ054-064>069-076>088-106>120-011700-
SOUTHEAST KENTUCKY

CITY           SKY/WX    TMP DP  RH WIND       PRES   REMARKS
JACKSON        CLOUDY    44  18  35 VRB3      30.02F
LONDON         CLOUDY    48  15  26 S7        30.03F
SOMERSET       CLOUDY    46  23  39 S8        30.03F
MIDDLESBORO    CLOUDY    44  15  31 S6        30.09F
MONTICELLO     CLOUDY    49  25  39 S9        30.03F
$$




USA.gov is the U.S. government's official web portal to all federal, state and local government web resources and services.